Change the Weather History Date:

Friday, April 19, 2013

  Actual Average Record
Temperature  
Mean Temperature 60 °F 46 °F  
Max Temperature 74 °F 57 °F 91 °F (1976)
Min Temperature 46 °F 36 °F 22 °F (1918)
Degree Days  
Heating Degree Days 5 19  
Month to date heating degree days 430 433  
Since 1 July heating degree days 6296 6897  
Cooling Degree Days 0 0  
Month to date cooling degree days 0 0  
Year to date cooling degree days 0 0  
Growing Degree Days 10 (Base 50)    
Moisture  
Dew Point 51 °F    
Average Humidity 68    
Maximum Humidity 86    
Minimum Humidity 49    
Precipitation  
Precipitation 0.61 in 0.09 in 0.76 in (1969)
Month to date precipitation 1.99 1.75  
Year to date precipitation 6.47 7.79  
Snow  
Snow 0.00 in 0.10 in 6.00 in (1925)
Month to date snowfall 1.0 3.6  
Since 1 July snowfall 82.9 80.2  
Snow Depth 0.00 in    
Sea Level Pressure  
Sea Level Pressure 29.67 in    
Wind  
Wind Speed 19 mph (SSW)    
Max Wind Speed 32 mph    
Max Gust Speed 47 mph    
Visibility 9 miles    
Events Rain    
T = Trace of Precipitation, MM = Missing Value Source: NWS Daily Summary

Daily Weather History Graph

Daily Weather History Graph

Search for Another Location

Airport or City:

Trip Planner

Search our weather history database for the weather conditions in past years. The results will help you decide how hot, cold, wet, or windy it might be!

Date:

Astronomy

Apr. 19, 2013 Rise Set
Actual Time 6:01 AM EDT 7:42 PM EDT
Civil Twilight 5:30 AM EDT 8:13 PM EDT
Nautical Twilight 4:53 AM EDT 8:50 PM EDT
Astronomical Twilight 4:13 AM EDT 9:31 PM EDT
Moon 1:10 PM EDT (4/19) 2:30 AM EDT (4/19)
Length of Visible Light 14h 42m
Length of Day
13h 40m
First Quarter, 61% of the Moon is Illuminated
Apr 19
First Quarter
Apr 25
Full
May 2
Last Quarter
May 9
New
May 18
First Quarter

Hourly Weather History & Observations

Time (EDT) Temp. Dew Point Humidity Pressure Visibility Wind Dir Wind Speed Gust Speed Precip Events Conditions
12:54 AM 57.0 °F 41.0 °F 55% 29.88 in 10.0 mi South 27.6 mph 36.8 mph N/A   Overcast
1:54 AM 55.9 °F 44.1 °F 64% 29.84 in 10.0 mi South 25.3 mph 39.1 mph N/A   Partly Cloudy
2:54 AM 57.0 °F 48.9 °F 74% 29.83 in 10.0 mi South 28.8 mph 46.0 mph N/A   Partly Cloudy
3:54 AM 57.0 °F 50.0 °F 77% 29.82 in 10.0 mi SSW 20.7 mph 31.1 mph N/A   Partly Cloudy
4:54 AM 57.9 °F 51.1 °F 78% 29.81 in 10.0 mi South 26.5 mph 35.7 mph N/A   Clear
5:54 AM 59.0 °F 52.0 °F 78% 29.81 in 10.0 mi SSW 17.3 mph 31.1 mph N/A   Scattered Clouds
6:54 AM 60.1 °F 52.0 °F 75% 29.80 in 10.0 mi South 21.9 mph 34.5 mph N/A   Mostly Cloudy
7:54 AM 61.0 °F 53.1 °F 75% 29.80 in 10.0 mi South 19.6 mph 35.7 mph N/A   Overcast
8:32 AM 62.6 °F 53.6 °F 72% 29.80 in 10.0 mi South 18.4 mph 29.9 mph N/A   Overcast
8:54 AM 62.1 °F 53.1 °F 72% 29.78 in 10.0 mi South 19.6 mph 31.1 mph N/A   Overcast
9:54 AM 64.9 °F 54.0 °F 68% 29.75 in 10.0 mi South 19.6 mph 31.1 mph N/A   Overcast
10:54 AM 68.0 °F 54.0 °F 61% 29.73 in 10.0 mi South 24.2 mph 36.8 mph N/A   Overcast
11:24 AM 66.2 °F 53.6 °F 64% 29.72 in 10.0 mi South 24.2 mph 35.7 mph N/A   Overcast
11:54 AM 66.9 °F 55.0 °F 66% 29.71 in 10.0 mi SSW 23.0 mph 33.4 mph N/A   Overcast
12:17 PM 69.8 °F 55.4 °F 60% 29.69 in 10.0 mi South 17.3 mph 25.3 mph N/A   Mostly Cloudy
12:54 PM 72.0 °F 54.0 °F 53% 29.65 in 10.0 mi South 20.7 mph 27.6 mph N/A   Mostly Cloudy
1:54 PM 73.0 °F 53.1 °F 49% 29.64 in 10.0 mi South 19.6 mph 28.8 mph N/A   Overcast
2:54 PM 73.9 °F 54.0 °F 50% 29.60 in 10.0 mi South 21.9 mph 38.0 mph N/A   Mostly Cloudy
3:54 PM 72.0 °F 55.0 °F 55% 29.57 in 10.0 mi SSW 23.0 mph 35.7 mph N/A   Mostly Cloudy
4:54 PM 72.0 °F 54.0 °F 53% 29.49 in 10.0 mi South 24.2 mph 29.9 mph N/A   Mostly Cloudy
5:54 PM 72.0 °F 55.0 °F 55% 29.49 in 10.0 mi South 15.0 mph 25.3 mph N/A   Mostly Cloudy
6:54 PM 72.0 °F 55.9 °F 57% 29.47 in 10.0 mi South 17.3 mph 28.8 mph N/A   Mostly Cloudy
7:54 PM 72.0 °F 57.0 °F 59% 29.45 in 10.0 mi South 18.4 mph 28.8 mph N/A   Mostly Cloudy
8:54 PM 72.0 °F 57.0 °F 59% 29.47 in 10.0 mi SSW 13.8 mph 21.9 mph N/A   Overcast
9:06 PM 55.4 °F 46.4 °F 72% 29.52 in 10.0 mi WNW 31.1 mph 39.1 mph N/A   Overcast
9:51 PM 48.2 °F 44.6 °F 87% 29.58 in 1.5 mi WNW 10.4 mph 24.2 mph 0.21 in Rain Heavy Rain
9:54 PM 48.0 °F 45.0 °F 89% 29.60 in 2.0 mi West 6.9 mph 19.6 mph 0.24 in Rain Heavy Rain
10:11 PM 48.2 °F 44.6 °F 87% 29.59 in 5.0 mi NNW 11.5 mph - 0.09 in Rain Rain
10:54 PM 46.9 °F 43.0 °F 86% 29.64 in 4.0 mi Variable 4.6 mph - 0.26 in Rain Rain
11:54 PM 46.9 °F 37.0 °F 68% 29.68 in 10.0 mi West 10.4 mph - 0.11 in   Overcast